GSAT0216 (GALILEO 20) (43056 NORAD) Tracking and Keplerian Element Data

This shows tracking and keplerian element data for the satellite.

Feedback or suggestion? Click here.




ElementValue
Catalog43056
NameGSAT0216 (GALILEO 20)
Epoch Orbit786
Epoch Day77.46696205
Epoch Year2019
RAAN294.3133
Inclination56.6329
Eccentricity0.0001993
Argument of Perigee279.306
Mean Anonmoly80.7235
Mean Motion1.70473777
Decay Rate1.2E-07
L11 43056U 17079B 19077.46696205 .00000012 00000-0 00000-0 0 9997
L22 43056 56.6329 294.3133 0001993 279.3060 80.7235 1.70473777 7864

Live tracking and technical data element details for GSAT0216 (GALILEO 20) (NORAD 43056). GSAT0216 (GALILEO 20) can be tracked NOW for your location showing map with azimuth and elevation plus other details from your city location.

Track the satellite on the map from your city or location and see movement details for azimuth, elevation, latitude, longitude, range, height, and movement on the map or in text.







IsCatalogInMostPopularTable: catalog: 43056, numindb: 248
Update: records affected: 1



GetName: 43056 GSAT0216 (GALILEO 20)

Hit Count: updated at: Wed, 20 Mar 2019 05:47:46 GMT